TimeCST,TemperatureF,Dew PointF,Humidity,Sea Level PressureIn,VisibilityMPH,Wind Direction,Wind SpeedMPH,Gust SpeedMPH,PrecipitationIn,Events,Conditions,WindDirDegrees,DateUTC
12:15 AM,30.0,20.5,68,29.90,10.0,West,19.6,29.9,N/A,,Overcast,270,2013-02-19 06:15:00
12:35 AM,28.2,17.2,63,29.91,10.0,WNW,12.7,29.9,N/A,,Scattered Clouds,290,2013-02-19 06:35:00
12:55 AM,28.2,18.7,67,29.91,10.0,West,11.5,16.1,N/A,,Scattered Clouds,280,2013-02-19 06:55:00
1:15 AM,28.2,18.7,67,29.92,10.0,West,16.1,25.3,N/A,,Scattered Clouds,280,2013-02-19 07:15:00
1:35 AM,27.5,18.1,68,29.93,10.0,West,11.5,24.2,N/A,,Scattered Clouds,280,2013-02-19 07:35:00
1:55 AM,27.5,18.5,69,29.93,10.0,West,11.5,21.9,N/A,,Mostly Cloudy,270,2013-02-19 07:55:00
2:15 AM,27.5,18.0,67,29.93,10.0,West,19.6,27.6,N/A,,Mostly Cloudy,270,2013-02-19 08:15:00
2:35 AM,26.6,17.4,68,29.94,10.0,West,13.8,26.5,N/A,,Mostly Cloudy,280,2013-02-19 08:35:00
2:55 AM,26.6,18.0,70,29.94,10.0,West,16.1,23.0,N/A,,Overcast,270,2013-02-19 08:55:00
3:15 AM,26.6,18.0,70,29.95,10.0,West,21.9,26.5,N/A,,Overcast,260,2013-02-19 09:15:00
3:35 AM,25.7,15.1,64,29.95,10.0,West,21.9,29.9,N/A,,Mostly Cloudy,270,2013-02-19 09:35:00
3:55 AM,24.8,14.2,64,29.95,10.0,West,23.0,31.1,N/A,,Scattered Clouds,260,2013-02-19 09:55:00
4:15 AM,23.9,13.8,65,29.96,10.0,West,16.1,23.0,N/A,,Scattered Clouds,280,2013-02-19 10:15:00
4:35 AM,23.9,14.5,67,29.97,10.0,West,13.8,20.7,N/A,,Scattered Clouds,280,2013-02-19 10:35:00
4:55 AM,23.9,15.4,70,29.97,10.0,West,10.4,18.4,N/A,,Scattered Clouds,270,2013-02-19 10:55:00
5:15 AM,23.9,16.0,72,29.98,10.0,West,13.8,21.9,N/A,,Scattered Clouds,280,2013-02-19 11:15:00
5:35 AM,23.0,14.0,68,29.99,10.0,West,17.3,20.7,N/A,,Scattered Clouds,280,2013-02-19 11:35:00
5:55 AM,23.4,14.7,70,30.00,10.0,West,13.8,20.7,N/A,,Mostly Cloudy,280,2013-02-19 11:55:00
6:15 AM,23.2,14.9,71,30.00,10.0,West,15.0,25.3,N/A,,Overcast,270,2013-02-19 12:15:00
6:35 AM,22.8,14.4,70,30.01,10.0,West,19.6,23.0,N/A,,Overcast,270,2013-02-19 12:35:00
6:55 AM,22.1,12.6,67,30.02,10.0,West,19.6,29.9,N/A,,Mostly Cloudy,280,2013-02-19 12:55:00
7:15 AM,21.7,12.2,67,30.04,10.0,West,21.9,28.8,N/A,,Scattered Clouds,280,2013-02-19 13:15:00
7:35 AM,21.7,12.0,66,30.05,10.0,West,17.3,27.6,N/A,,Clear,280,2013-02-19 13:35:00
7:55 AM,21.4,11.7,66,30.07,10.0,West,21.9,28.8,N/A,,Scattered Clouds,280,2013-02-19 13:55:00
8:15 AM,21.2,12.2,68,30.08,10.0,West,21.9,27.6,N/A,,Mostly Cloudy,270,2013-02-19 14:15:00
8:35 AM,21.2,12.2,68,30.09,10.0,WNW,18.4,27.6,N/A,,Overcast,290,2013-02-19 14:35:00
8:55 AM,21.0,12.0,68,30.10,10.0,West,18.4,27.6,N/A,,Overcast,280,2013-02-19 14:55:00
9:15 AM,21.4,12.6,69,30.11,10.0,West,21.9,26.5,N/A,,Overcast,280,2013-02-19 15:15:00
9:35 AM,21.4,11.5,66,30.11,10.0,West,20.7,29.9,N/A,,Overcast,270,2013-02-19 15:35:00
9:55 AM,21.6,11.1,64,30.12,10.0,West,20.7,28.8,N/A,,Overcast,280,2013-02-19 15:55:00
10:15 AM,21.2,11.8,67,30.13,10.0,West,17.3,25.3,N/A,,Overcast,270,2013-02-19 16:15:00
10:35 AM,21.2,11.1,65,30.14,10.0,West,18.4,28.8,N/A,,Overcast,270,2013-02-19 16:35:00
10:55 AM,22.5,12.6,66,30.14,10.0,West,17.3,24.2,N/A,,Overcast,280,2013-02-19 16:55:00
11:15 AM,21.9,11.3,64,30.15,10.0,WNW,18.4,29.9,N/A,,Overcast,290,2013-02-19 17:15:00
11:35 AM,21.7,11.5,65,30.16,10.0,West,19.6,28.8,N/A,,Overcast,280,2013-02-19 17:35:00
11:55 AM,22.3,11.8,64,30.16,10.0,West,23.0,29.9,N/A,,Overcast,280,2013-02-19 17:55:00
12:15 PM,22.8,12.2,64,30.16,10.0,WNW,21.9,29.9,N/A,,Overcast,290,2013-02-19 18:15:00
12:35 PM,22.8,12.2,64,30.16,10.0,West,17.3,24.2,N/A,,Overcast,270,2013-02-19 18:35:00
12:55 PM,23.0,11.7,62,30.16,10.0,West,16.1,29.9,N/A,,Overcast,280,2013-02-19 18:55:00
1:15 PM,24.3,12.2,60,30.16,10.0,West,17.3,28.8,N/A,,Overcast,270,2013-02-19 19:15:00
1:35 PM,24.3,12.2,60,30.16,10.0,West,20.7,26.5,N/A,,Mostly Cloudy,260,2013-02-19 19:35:00
1:55 PM,25.0,11.8,57,30.17,10.0,West,19.6,29.9,N/A,,Mostly Cloudy,280,2013-02-19 19:55:00
2:15 PM,25.9,11.8,55,30.17,10.0,West,15.0,27.6,N/A,,Scattered Clouds,280,2013-02-19 20:15:00
2:35 PM,26.4,12.2,55,30.18,10.0,West,17.3,26.5,N/A,,Mostly Cloudy,260,2013-02-19 20:35:00
2:55 PM,28.0,12.9,53,30.18,10.0,West,12.7,26.5,N/A,,Mostly Cloudy,270,2013-02-19 20:55:00
3:15 PM,27.3,12.9,55,30.19,10.0,West,19.6,26.5,N/A,,Scattered Clouds,270,2013-02-19 21:15:00
3:35 PM,27.9,13.5,55,30.19,10.0,West,17.3,24.2,N/A,,Scattered Clouds,280,2013-02-19 21:35:00
3:55 PM,27.9,12.2,52,30.19,10.0,West,18.4,26.5,N/A,,Clear,270,2013-02-19 21:55:00
4:15 PM,28.2,12.0,51,30.20,10.0,West,15.0,24.2,N/A,,Clear,270,2013-02-19 22:15:00
4:35 PM,28.2,12.0,51,30.20,10.0,WNW,18.4,25.3,N/A,,Clear,290,2013-02-19 22:35:00
4:55 PM,27.9,12.0,52,30.21,10.0,West,12.7,23.0,N/A,,Clear,280,2013-02-19 22:55:00
5:15 PM,27.5,11.1,50,30.21,10.0,West,13.8,23.0,N/A,,Clear,280,2013-02-19 23:15:00
6:35 PM,26.1,11.1,53,30.23,10.0,WNW,9.2,-,N/A,,Clear,290,2013-02-20 00:35:00
6:55 PM,25.7,11.3,55,30.23,10.0,West,8.1,-,N/A,,Clear,280,2013-02-20 00:55:00
7:35 PM,25.2,11.3,56,30.23,10.0,West,5.8,-,N/A,,Clear,280,2013-02-20 01:35:00
7:55 PM,24.8,11.5,57,30.24,10.0,West,5.8,-,N/A,,Clear,280,2013-02-20 01:55:00
8:15 PM,24.6,11.8,58,30.25,10.0,West,5.8,-,N/A,,Clear,280,2013-02-20 02:15:00
8:35 PM,24.1,11.8,60,30.25,10.0,WNW,5.8,-,N/A,,Clear,290,2013-02-20 02:35:00
8:55 PM,23.9,12.0,61,30.25,10.0,NW,4.6,-,N/A,,Clear,310,2013-02-20 02:55:00
9:15 PM,23.0,12.2,63,30.27,10.0,NW,9.2,-,N/A,,Clear,320,2013-02-20 03:15:00
9:35 PM,23.0,11.7,62,30.27,10.0,NW,6.9,-,N/A,,Clear,310,2013-02-20 03:35:00
9:55 PM,22.5,11.3,62,30.28,10.0,WNW,6.9,-,N/A,,Clear,300,2013-02-20 03:55:00
10:15 PM,22.1,10.4,61,30.28,10.0,WNW,5.8,-,N/A,,Clear,300,2013-02-20 04:15:00
10:35 PM,22.1,10.2,60,30.29,10.0,WNW,5.8,-,N/A,,Clear,290,2013-02-20 04:35:00
10:55 PM,21.7,10.2,61,30.29,10.0,WNW,5.8,-,N/A,,Scattered Clouds,300,2013-02-20 04:55:00
11:15 PM,21.2,10.6,64,30.31,10.0,West,4.6,-,N/A,,Clear,280,2013-02-20 05:15:00
11:35 PM,21.2,10.0,62,30.29,10.0,NW,5.8,-,N/A,,Clear,310,2013-02-20 05:35:00
11:55 PM,19.4,10.4,68,30.29,10.0,WNW,5.8,-,N/A,,Clear,290,2013-02-20 05:55:00